Tiempo cada hora Bolshie Dvorcy

Hoy, 31 Julio, Sábado

Tiempo Temperatura Precipitaciones Viento Presión Humedad
00:00 +21°C° 0 mm 1 mps 744 mmHg 72%
01:00 +20°C° 0 mm 1 mps 744 mmHg 74%
02:00 +19°C° 0 mm 1 mps 744 mmHg 76%
03:00 +19°C° 0 mm 1 mps 744 mmHg 77%
04:00 +19°C° 0 mm 1 mps 744 mmHg 77%
05:00 +19°C° 0 mm 1 mps 744 mmHg 78%
06:00 +20°C° 0 mm 2 mps 744 mmHg 72%
07:00 +23°C° 0 mm 2 mps 744 mmHg 66%
08:00 +24°C° 0 mm 2 mps 744 mmHg 60%
09:00 +26°C° 0 mm 2 mps 744 mmHg 56%
10:00 +28°C° 0 mm 2 mps 744 mmHg 52%
11:00 +29°C° 0 mm 2 mps 744 mmHg 47%
12:00 +30°C° 0 mm 3 mps 744 mmHg 45%
13:00 +31°C° 0 mm 3 mps 744 mmHg 42%
14:00 +33°C° 0 mm 3 mps 744 mmHg 39%
15:00 +32°C° 0 mm 2 mps 743 mmHg 40%
16:00 +31°C° 0 mm 2 mps 743 mmHg 42%
17:00 +31°C° 0 mm 1 mps 743 mmHg 43%
18:00 +29°C° 0.1 mm 2 mps 743 mmHg 52%
19:00 +27°C° 0.1 mm 3 mps 743 mmHg 60%
20:00 +23°C° 0.1 mm 4 mps 743 mmHg 69%
21:00 +22°C° 0.5 mm 4 mps 744 mmHg 76%
22:00 +21°C° 0.5 mm 3 mps 744 mmHg 84%
23:00 +19°C° 0.5 mm 3 mps 745 mmHg 91%

Mañana, 1 Agosto, Domingo

Tiempo Temperatura Precipitaciones Viento Presión Humedad
00:00 +19°C° 0.2 mm 3 mps 745 mmHg 92%
01:00 +19°C° 0.2 mm 2 mps 745 mmHg 93%
02:00 +19°C° 0.2 mm 2 mps 745 mmHg 94%
03:00 +19°C° 0 mm 2 mps 745 mmHg 95%
04:00 +18°C° 0 mm 2 mps 745 mmHg 95%
05:00 +18°C° 0 mm 2 mps 745 mmHg 96%
06:00 +19°C° 0 mm 2 mps 745 mmHg 91%
07:00 +20°C° 0 mm 2 mps 745 mmHg 85%
08:00 +21°C° 0 mm 3 mps 746 mmHg 80%
09:00 +24°C° 0 mm 2 mps 746 mmHg 71%
10:00 +26°C° 0 mm 2 mps 746 mmHg 62%
11:00 +27°C° 0 mm 1 mps 746 mmHg 53%
12:00 +28°C° 0 mm 1 mps 745 mmHg 50%
13:00 +29°C° 0 mm 1 mps 745 mmHg 46%
14:00 +30°C° 0 mm 1 mps 745 mmHg 42%
15:00 +30°C° 0 mm 2 mps 745 mmHg 44%
16:00 +30°C° 0 mm 2 mps 744 mmHg 46%
17:00 +30°C° 0 mm 2 mps 744 mmHg 47%
18:00 +28°C° 0 mm 2 mps 743 mmHg 53%
19:00 +26°C° 0 mm 2 mps 743 mmHg 59%
20:00 +25°C° 0 mm 2 mps 742 mmHg 65%
21:00 +24°C° 0.3 mm 2 mps 742 mmHg 70%
22:00 +23°C° 0.3 mm 2 mps 742 mmHg 76%
23:00 +21°C° 0.3 mm 2 mps 742 mmHg 81%

Pasado mañana, 2 Agosto, Lunes

Tiempo Temperatura Precipitaciones Viento Presión Humedad
00:00 +20°C° 5.7 mm 2 mps 742 mmHg 85%
01:00 +20°C° 5.7 mm 2 mps 742 mmHg 90%
02:00 +20°C° 5.7 mm 1 mps 741 mmHg 94%
03:00 +20°C° 0.2 mm 1 mps 741 mmHg 95%
04:00 +18°C° 0.2 mm 2 mps 741 mmHg 95%
05:00 +18°C° 0.2 mm 2 mps 741 mmHg 96%
06:00 +19°C° 0 mm 2 mps 741 mmHg 92%
07:00 +20°C° 0 mm 3 mps 741 mmHg 89%
08:00 +21°C° 0 mm 3 mps 741 mmHg 85%
09:00 +22°C° 0 mm 4 mps 741 mmHg 81%
10:00 +22°C° 0 mm 5 mps 741 mmHg 76%
11:00 +23°C° 0 mm 5 mps 742 mmHg 72%
12:00 +22°C° 0 mm 5 mps 742 mmHg 76%
13:00 +20°C° 0 mm 5 mps 742 mmHg 79%
14:00 +19°C° 0 mm 5 mps 743 mmHg 83%
15:00 +17°C° 0 mm 5 mps 743 mmHg 83%
16:00 +17°C° 0 mm 5 mps 743 mmHg 84%
17:00 +16°C° 0 mm 5 mps 744 mmHg 85%
18:00 +16°C° 0 mm 5 mps 744 mmHg 85%
19:00 +17°C° 0 mm 4 mps 744 mmHg 84%
20:00 +17°C° 0 mm 3 mps 745 mmHg 84%
21:00 +17°C° 0 mm 3 mps 745 mmHg 85%
22:00 +17°C° 0 mm 2 mps 745 mmHg 86%
23:00 +17°C° 0 mm 2 mps 746 mmHg 87%

3 Agosto, Martes

Tiempo Temperatura Precipitaciones Viento Presión Humedad
00:00 +16°C° 0 mm 2 mps 746 mmHg 89%
01:00 +15°C° 0 mm 2 mps 746 mmHg 91%
02:00 +15°C° 0 mm 2 mps 746 mmHg 93%
03:00 +15°C° 0 mm 2 mps 746 mmHg 94%
04:00 +13°C° 0 mm 3 mps 746 mmHg 95%
05:00 +13°C° 0 mm 3 mps 747 mmHg 96%
06:00 +14°C° 0 mm 3 mps 747 mmHg 90%
07:00 +17°C° 0 mm 4 mps 747 mmHg 83%
08:00 +19°C° 0 mm 4 mps 747 mmHg 76%
09:00 +20°C° 0.1 mm 5 mps 748 mmHg 71%
10:00 +21°C° 0.1 mm 5 mps 748 mmHg 65%
11:00 +22°C° 0.1 mm 5 mps 748 mmHg 60%
12:00 +22°C° 0 mm 5 mps 748 mmHg 55%
13:00 +23°C° 0 mm 5 mps 748 mmHg 51%
14:00 +23°C° 0 mm 5 mps 748 mmHg 46%
15:00 +23°C° 0 mm 5 mps 748 mmHg 47%
16:00 +23°C° 0 mm 5 mps 748 mmHg 47%
17:00 +23°C° 0 mm 4 mps 748 mmHg 48%
18:00 +21°C° 0 mm 3 mps 749 mmHg 55%
19:00 +19°C° 0 mm 2 mps 749 mmHg 63%
20:00 +18°C° 0 mm 1 mps 749 mmHg 71%
21:00 +18°C° 0 mm 1 mps 749 mmHg 72%
22:00 +16°C° 0 mm 1 mps 750 mmHg 74%
23:00 +15°C° 0 mm 1 mps 750 mmHg 75%

4 Agosto, Miércoles

Tiempo Temperatura Precipitaciones Viento Presión Humedad
00:00 +15°C° 0 mm 1 mps 750 mmHg 77%
01:00 +13°C° 0 mm 0 mps 750 mmHg 79%
02:00 +13°C° 0 mm 0 mps 750 mmHg 81%
03:00 +13°C° 0 mm 0 mps 750 mmHg 80%
04:00 +14°C° 0 mm 1 mps 750 mmHg 80%
05:00 +14°C° 0 mm 1 mps 750 mmHg 80%
06:00 +15°C° 0 mm 1 mps 750 mmHg 74%
07:00 +18°C° 0 mm 1 mps 750 mmHg 69%
08:00 +19°C° 0 mm 2 mps 750 mmHg 64%
09:00 +20°C° 0 mm 2 mps 750 mmHg 58%
10:00 +23°C° 0 mm 2 mps 750 mmHg 51%
11:00 +25°C° 0 mm 3 mps 749 mmHg 45%
12:00 +25°C° 0 mm 3 mps 749 mmHg 44%
13:00 +26°C° 0 mm 3 mps 748 mmHg 43%
14:00 +27°C° 0 mm 3 mps 748 mmHg 42%
15:00 +26°C° 0 mm 3 mps 748 mmHg 48%
16:00 +25°C° 0 mm 3 mps 747 mmHg 54%
17:00 +24°C° 0 mm 3 mps 747 mmHg 60%
18:00 +22°C° 0.3 mm 4 mps 747 mmHg 70%
19:00 +20°C° 0.3 mm 4 mps 747 mmHg 80%
20:00 +18°C° 0.3 mm 4 mps 747 mmHg 89%
21:00 +18°C° 0.1 mm 4 mps 746 mmHg 91%
22:00 +18°C° 0.1 mm 4 mps 746 mmHg 92%
23:00 +17°C° 0.1 mm 4 mps 746 mmHg 94%

5 Agosto, Jueves

Tiempo Temperatura Precipitaciones Viento Presión Humedad
00:00 +17°C° 0.2 mm 4 mps 746 mmHg 95%
01:00 +17°C° 0.2 mm 4 mps 745 mmHg 95%
02:00 +17°C° 0.2 mm 4 mps 745 mmHg 96%
03:00 +17°C° 0.4 mm 3 mps 745 mmHg 97%
04:00 +17°C° 0.4 mm 3 mps 744 mmHg 97%
05:00 +17°C° 0.4 mm 3 mps 744 mmHg 97%
06:00 +18°C° 0.1 mm 3 mps 744 mmHg 96%
07:00 +18°C° 0.1 mm 3 mps 744 mmHg 94%
08:00 +18°C° 0.1 mm 3 mps 744 mmHg 93%
09:00 +19°C° 0.1 mm 3 mps 744 mmHg 86%
10:00 +20°C° 0.1 mm 4 mps 744 mmHg 79%
11:00 +21°C° 0.1 mm 5 mps 744 mmHg 73%
12:00 +22°C° 0.1 mm 5 mps 744 mmHg 69%
13:00 +22°C° 0.1 mm 5 mps 744 mmHg 65%
14:00 +23°C° 0.1 mm 5 mps 744 mmHg 61%
15:00 +23°C° 0 mm 5 mps 744 mmHg 59%
16:00 +23°C° 0 mm 4 mps 744 mmHg 57%
17:00 +25°C° 0 mm 4 mps 744 mmHg 56%
18:00 +22°C° 0 mm 3 mps 744 mmHg 63%
19:00 +20°C° 0 mm 2 mps 744 mmHg 70%
20:00 +19°C° 0 mm 1 mps 744 mmHg 78%
21:00 +19°C° 0 mm 1 mps 744 mmHg 79%
22:00 +18°C° 0 mm 1 mps 744 mmHg 80%
23:00 +18°C° 0 mm 1 mps 744 mmHg 82%
Mostrar más